Weather History for KMTJ - January, 2014

Change the Weather History Date:

Monday, January 6, 2014

  Actual Average Record
Temperature  
Mean Temperature 16 °F 25 °F  
Max Temperature 30 °F 37 °F 48 °F (2006)
Min Temperature 2 °F 13 °F -5 °F (2004)
Degree Days  
Heating Degree Days 49 40  
Month to date heating degree days 257 240  
Since 1 July heating degree days 3026 2848  
Cooling Degree Days 0 0  
Month to date cooling degree days 0 0  
Year to date cooling degree days 0 0  
Moisture  
Dew Point 1 °F    
Average Humidity 57    
Maximum Humidity 79    
Minimum Humidity 34    
Precipitation  
Precipitation 0.00 in 0.02 in 0.18 in (2008)
Month to date precipitation T 0.13  
Year to date precipitation T 0.13  
Sea Level Pressure  
Sea Level Pressure 30.60 in    
Wind  
Wind Speed 5 mph (SSE)    
Max Wind Speed 16 mph    
Max Gust Speed 17 mph    
Visibility 10 miles    
Events      
T = Trace of Precipitation, MM = Missing Value Source: NWS Daily Summary

Daily Weather History Graph

Daily Weather History Graph

Search for Another Location

Airport or City:

Trip Planner

Search our weather history database for the weather conditions in past years. The results will help you decide how hot, cold, wet, or windy it might be!

Date:

Astronomy

Jan. 06, 2014 Rise Set
Actual Time 7:29 AM MST 5:05 PM MST
Civil Twilight 6:59 AM MST 5:35 PM MST
Nautical Twilight 6:26 AM MST 6:08 PM MST
Astronomical Twilight 5:54 AM MST 6:40 PM MST
Moon 10:51 AM MST (1/6) 11:37 PM MST (1/6)
Length of Visible Light 10h 35m
Length of Day
9h 36m
Waxing Crescent, 35% of the Moon is Illuminated
Jan 6
Waxing Crescent
Jan 7
First Quarter
Jan 15
Full
Jan 23
Last Quarter
Jan 30
New

Hourly Weather History & Observations

Time (MST) Temp. Windchill Dew Point Humidity Pressure Visibility Wind Dir Wind Speed Gust Speed Precip Events Conditions
12:53 AM 9.0 °F -3.2 °F -0.9 °F 64% 30.52 in 10.0 mi SSE 8.1 mph - N/A   Clear
1:53 AM 7.0 °F -4.5 °F -2.0 °F 67% 30.55 in 10.0 mi SE 6.9 mph - N/A   Clear
2:53 AM 8.1 °F -3.2 °F -0.0 °F 70% 30.57 in 10.0 mi SSE 6.9 mph - N/A   Clear
3:53 AM 3.0 °F -9.3 °F -4.0 °F 73% 30.62 in 10.0 mi SE 6.9 mph - N/A   Clear
4:53 AM 3.9 °F -10.4 °F -2.9 °F 73% 30.63 in 10.0 mi South 9.2 mph - N/A   Clear
5:53 AM 3.0 °F -10.5 °F -4.0 °F 73% 30.66 in 10.0 mi SE 8.1 mph - N/A   Clear
6:53 AM 5.0 °F -8.1 °F -2.9 °F 70% 30.70 in 10.0 mi SSE 8.1 mph - N/A   Clear
7:53 AM 5.0 °F -6.9 °F -2.9 °F 70% 30.72 in 10.0 mi ESE 6.9 mph - N/A   Clear
8:53 AM 8.1 °F -2.0 °F -0.9 °F 67% 30.75 in 10.0 mi SSE 5.8 mph - N/A   Clear
9:53 AM 15.1 °F 9.4 °F 1.0 °F 54% 30.70 in 10.0 mi SE 3.5 mph - N/A   Clear
10:53 AM 21.9 °F - -0.9 °F 37% 30.66 in 10.0 mi Calm Calm - N/A   Clear
11:53 AM 23.0 °F - 3.0 °F 42% 30.62 in 10.0 mi Calm Calm - N/A   Clear
12:53 PM 25.0 °F - 1.0 °F 36% 30.56 in 10.0 mi Calm Calm - N/A   Clear
1:53 PM 28.0 °F - 3.0 °F 34% 30.52 in 10.0 mi Calm Calm - N/A   Clear
2:53 PM 28.0 °F 24.2 °F 3.9 °F 36% 30.52 in 10.0 mi NW 3.5 mph - N/A   Clear
3:53 PM 28.9 °F 25.2 °F 3.0 °F 33% 30.54 in 10.0 mi WNW 3.5 mph - N/A   Clear
4:53 PM 25.0 °F 19.3 °F 3.0 °F 39% 30.53 in 10.0 mi East 4.6 mph - N/A   Clear
5:53 PM 24.1 °F 18.2 °F 5.0 °F 44% 30.54 in 10.0 mi South 4.6 mph - N/A   Clear
6:53 PM 17.1 °F 7.6 °F 7.0 °F 65% 30.58 in 10.0 mi SE 6.9 mph - N/A   Clear
7:53 PM 15.1 °F 5.2 °F 5.0 °F 64% 30.60 in 10.0 mi SSE 6.9 mph - N/A   Clear
8:53 PM 15.1 °F 7.7 °F 5.0 °F 64% 30.58 in 10.0 mi South 4.6 mph - N/A   Clear
9:53 PM 12.9 °F 3.8 °F 5.0 °F 71% 30.58 in 10.0 mi SSE 5.8 mph - N/A   Clear
10:53 PM 10.0 °F -0.9 °F 3.0 °F 73% 30.54 in 10.0 mi SE 6.9 mph - N/A   Clear
11:53 PM 12.0 °F 0.5 °F 3.9 °F 70% 30.50 in 10.0 mi SE 8.1 mph - N/A   Clear